GW1852 Weather Reports


Display with metric or nautical units.
time (UTC)temp
F
wind
direction
speed
MPH
gust
MPH
rain 1hr
in
rain 24hr
in
rain mn
in
humidity
%
barometer
mb
20221004024523 59 135 1.0 2.0 0.00 0.00 0.00 75 1021.1
20221004023037 60 143 1.0 2.0 0.00 0.00 0.00 74 1021.1
20221004021529 60 139 1.0 4.0 0.00 0.00 0.00 72 1021.0
20221004020029 61 161 1.0 4.0 0.00 0.00 0.00 71 1021.0
20221004014529 61 175 2.0 4.0 0.00 0.00 0.00 70 1020.9
20221004013031 62 127 1.0 3.0 0.00 0.00 0.00 69 1020.9
20221004011528 63 139 1.0 4.0 0.00 0.00 0.00 66 1021.0
20221004010029 65 162 2.0 3.0 0.00 0.00 0.00 61 1020.9
20221004004532 66 158 2.0 2.0 0.00 0.00 0.00 58 1020.9
20221004003029 67 155 1.0 2.0 0.00 0.00 0.00 60 1020.9
20221004001540 68 136 1.0 2.0 0.00 0.00 0.00 56 1020.8
20221004000039 68 136 0.0 1.0 0.00 0.00 0.00 55 1020.9
20221003234533 69 116 0.0 1.0 0.00 0.00 0.00 56 1021.0
20221003233036 67 115 1.0 2.0 0.00 0.00 0.00 56 1021.1
20221003231537 69 193 0.0 2.0 0.00 0.00 0.00 52 1021.1
20221003230036 68 115 1.0 2.0 0.00 0.00 0.00 57 1021.0
20221003224530 70 160 0.0 2.0 0.00 0.00 0.00 52 1021.0
20221003223029 70 161 1.0 2.0 0.00 0.00 0.00 49 1021.1
20221003221527 69 148 1.0 2.0 0.00 0.00 0.00 50 1021.1
20221003220029 69 232 1.0 2.0 0.00 0.00 0.00 50 1021.1
20221003214529 68 174 2.0 3.0 0.00 0.00 0.00 54 1021.4
20221003213033 68 209 1.0 3.0 0.00 0.00 0.00 56 1021.5
20221003211528 68 233 1.0 3.0 0.00 0.00 0.00 54 1021.6
20221003210115 67 212 2.0 4.0 0.00 0.00 0.00 56 1021.7
20221003204536 67 202 2.0 3.0 0.00 0.00 0.00 57 1021.7
20221003203035 67 197 1.0 3.0 0.00 0.00 0.00 56 1021.8
20221003201604 66 158 2.0 3.0 0.00 0.00 0.00 59 1021.8
20221003200032 65 119 1.0 2.0 0.00 0.00 0.00 62 1021.9
20221003194539 64 134 1.0 2.0 0.00 0.00 0.00 65 1022.0
20221003193104 63 146 1.0 3.0 0.00 0.00 0.00 67 1022.2
20221003191547 63 120 2.0 3.0 0.00 0.00 0.00 65 1022.1
20221003190051 64 136 1.0 2.0 0.00 0.00 0.00 66 1022.1
20221003184526 63 174 1.0 2.0 0.00 0.00 0.00 65 1022.1
20221003183047 62 181 1.0 2.0 0.00 0.00 0.00 73 1022.1
20221003181535 61 191 1.0 3.0 0.00 0.00 0.00 76 1022.1
20221003180037 61 188 2.0 3.0 0.00 0.00 0.00 76 1022.2
20221003174538 61 161 2.0 3.0 0.00 0.00 0.00 78 1022.4
20221003173030 59 110 1.0 2.0 0.00 0.00 0.00 79 1022.5
20221003171541 59 111 0.0 2.0 0.00 0.00 0.00 81 1022.5
20221003170032 59 141 1.0 2.0 0.00 0.00 0.00 80 1022.5
20221003164527 57 0 0.0 1.0 0.00 0.00 0.00 84 1022.5
20221003163031 56 344 0.0 2.0 0.00 0.00 0.00 85 1022.4
20221003161529 56 345 2.0 4.0 0.00 0.00 0.00 85 1022.4
20221003160051 56 349 2.0 5.0 0.00 0.00 0.00 86 1022.4
20221003154617 56 331 1.0 3.0 0.00 0.00 0.00 87 1022.1
20221003153033 55 286 2.0 4.0 0.00 0.00 0.00 89 1022.1
20221003151530 54 309 1.0 4.0 0.00 0.00 0.00 89 1022.0
20221003150037 54 307 1.0 4.0 0.00 0.00 0.00 91 1021.8
20221003144527 53 0 0.0 1.0 0.00 0.00 0.00 91 1021.7
20221003143042 52 314 0.0 1.0 0.00 0.00 0.00 91 1021.7
20221003141534 52 7 1.0 2.0 0.00 0.00 0.00 92 1021.7
20221003140031 0 0.0 0.0 0.00 0.00 0.00 1021.5
20221003134550 0 0.0 0.0 0.00 0.00 0.00 1021.4
20221003133030 0 0.0 0.0 0.00 0.00 0.00 1021.4
20221003131535 0 0.0 0.0 0.00 0.00 0.00 1021.1
20221003130044 0 0.0 0.0 0.00 0.00 0.00 1021.0
20221003124534 0 0.0 0.0 0.00 0.00 0.00 1020.9
20221003123030 0 0.0 0.0 0.00 0.00 0.00 1020.9
20221003121531 0 0.0 0.0 0.00 0.00 0.00 1020.9
20221003120028 0 0.0 0.0 0.00 0.00 0.00 1020.7
20221003114528 0 0.0 0.0 0.00 0.00 0.00 1020.7
20221003113029 0 0.0 0.0 0.00 0.00 0.00 1020.3
20221003111527 53 271 1.0 1.0 0.00 0.00 0.00 92 1020.3
20221003110033 53 268 0.0 1.0 0.00 0.00 0.00 92 1020.2
20221003104534 53 0 0.0 1.0 0.00 0.00 0.00 91 1020.2
20221003103044 53 0 0.0 0.0 0.00 0.00 0.00 91 1020.1
20221003101530 53 0 0.0 1.0 0.00 0.00 0.00 91 1020.1
20221003100030 53 0 0.0 1.0 0.00 0.00 0.00 91 1020.2
20221003094539 53 245 1.0 2.0 0.00 0.00 0.00 91 1020.2
20221003093030 53 235 1.0 2.0 0.00 0.00 0.00 91 1020.2
20221003091539 53 0 0.0 1.0 0.00 0.00 0.00 90 1020.1
20221003090029 53 158 1.0 2.0 0.00 0.00 0.00 91 1020.0
20221003084529 53 140 0.0 2.0 0.00 0.00 0.00 90 1019.8
20221003083034 53 50 0.0 1.0 0.00 0.00 0.00 90 1019.8
20221003081535 53 0 0.0 2.0 0.00 0.00 0.00 90 1019.7
20221003080039 53 51 1.0 2.0 0.00 0.00 0.00 89 1019.8
20221003074536 53 53 1.0 2.0 0.00 0.00 0.00 89 1019.7
20221003073040 53 38 2.0 4.0 0.00 0.00 0.00 90 1019.7
20221003071535 53 75 1.0 2.0 0.00 0.00 0.00 89 1019.5
20221003070034 53 0 0.0 1.0 0.00 0.00 0.00 89 1019.5
20221003064540 54 0 0.0 0.0 0.00 0.00 0.00 89 1019.5
20221003063035 54 0 0.0 0.0 0.00 0.00 0.00 89 1019.5
20221003061528 53 0 0.0 0.0 0.00 0.00 0.00 89 1019.5
20221003060037 53 24 1.0 2.0 0.00 0.00 0.00 89 1019.5
20221003054532 53 0 0.0 0.0 0.00 0.00 0.00 89 1019.6
20221003053035 53 0 0.0 1.0 0.00 0.00 0.00 88 1019.5
20221003051534 54 0 0.0 0.0 0.00 0.00 0.00 87 1019.4
20221003050028 54 237 1.0 2.0 0.00 0.00 0.00 86 1019.3
20221003044536 54 248 1.0 2.0 0.00 0.00 0.00 87 1019.1
20221003043031 54 0 0.0 1.0 0.00 0.00 0.00 86 1019.1
20221003041527 54 0 0.0 1.0 0.00 0.00 0.00 86 1018.9
20221003040037 54 0 1.0 2.0 0.00 0.00 0.00 86 1019.1
20221003034524 54 0 0.0 1.0 0.00 0.03 0.00 87 1019.0
20221003033029 54 33 1.0 2.0 0.00 0.03 0.00 86 1019.0
20221003031528 54 103 0.0 2.0 0.00 0.03 0.00 86 1019.1
20221003030030 54 111 0.0 1.0 0.00 0.03 0.00 86 1019.1